La Junta, CO

5:33 PM MDT on April 25, 2017 (GMT -0600)
La Junta Municipal

Weather History for KLHX - June, 2013

Change the Weather History Date:

Wednesday, June 12, 2013

  Actual Average Record
Temperature  
Mean Temperature 81 °F 72 °F  
Max Temperature 99 °F 87 °F 106 °F (1952)
Min Temperature 63 °F 56 °F 41 °F (1947)
Degree Days  
Heating Degree Days 0 1  
Month to date heating degree days 11 14  
Since 1 June heating degree days 11 14  
Since 1 July heating degree days 5085 5269  
Cooling Degree Days 16 7  
Month to date cooling degree days 113 69  
Year to date cooling degree days 251 142  
Since 1 June cooling degree days 113 69  
Growing Degree Days 31 (Base 50)    
Moisture  
Dew Point 27 °F    
Average Humidity 17    
Maximum Humidity 28    
Minimum Humidity 6    
Precipitation  
Precipitation 0.00 in 0.05 in 1.81 in (2016)
Month to date precipitation 0.02  
Year to date precipitation 0.69  
Sea Level Pressure  
Sea Level Pressure 29.83 in    
Wind  
Wind Speed 11 mph (SE)    
Max Wind Speed 25 mph    
Max Gust Speed 29 mph    
Visibility 10 miles    
Events      
T = Trace of Precipitation, MM = Missing Value Source: NWS Daily Summary

Daily Weather History Graph

Daily Weather History Graph

Search for Another Location

Airport or City:

Trip Planner

Search our weather history database for the weather conditions in past years. The results will help you decide how hot, cold, wet, or windy it might be!

Date:

Astronomy

Jun. 12, 2013 Rise Set
Actual Time 5:30 AM MDT 8:17 PM MDT
Civil Twilight 4:59 AM MDT 8:48 PM MDT
Nautical Twilight 4:20 AM MDT 9:28 PM MDT
Astronomical Twilight 3:35 AM MDT 10:12 PM MDT
Moon 9:09 AM MDT (6/12) 10:57 PM MDT (6/12)
Length of Visible Light 15h 49m
Length of Day
14h 46m
Waxing Crescent, 14% of the Moon is Illuminated
Jun 12
Waxing Crescent
Jun 16
First Quarter
Jun 23
Full
Jun 29
Last Quarter
Jul 8
New

Hourly Weather History & Observations

Time (MDT) Temp. Dew Point Humidity Pressure Visibility Wind Dir Wind Speed Gust Speed Precip Events Conditions
12:53 AM 77.0 °F 15.1 °F 10% 29.70 in 10.0 mi NNW 10.4 mph - N/A   Clear
1:53 AM 73.9 °F 19.9 °F 13% 29.73 in 10.0 mi NW 9.2 mph - N/A   Clear
2:53 AM 69.1 °F 19.0 °F 15% 29.77 in 10.0 mi Calm Calm - N/A   Clear
3:53 AM 72.0 °F 23.0 °F 16% 29.79 in 10.0 mi West 3.5 mph - N/A   Clear
4:53 AM 64.9 °F 23.0 °F 20% 29.82 in 10.0 mi WNW 9.2 mph - N/A   Clear
5:53 AM 64.9 °F 23.0 °F 20% 29.85 in 10.0 mi West 10.4 mph - N/A   Clear
6:53 AM 66.9 °F 26.1 °F 21% 29.88 in 10.0 mi WSW 9.2 mph - N/A   Clear
7:53 AM 78.1 °F 24.1 °F 14% 29.89 in 10.0 mi NW 5.8 mph - N/A   Clear
8:53 AM 84.0 °F 25.0 °F 12% 29.89 in 10.0 mi NW 4.6 mph - N/A   Clear
9:53 AM 88.0 °F 26.1 °F 11% 29.90 in 10.0 mi NE 9.2 mph - N/A   Clear
10:53 AM 90.0 °F 27.0 °F 10% 29.91 in 10.0 mi Variable 5.8 mph - N/A   Clear
11:53 AM 91.9 °F 26.1 °F 9% 29.90 in 10.0 mi East 10.4 mph 18.4 mph N/A   Clear
12:53 PM 93.0 °F 24.1 °F 8% 29.89 in 10.0 mi SE 8.1 mph - N/A   Clear
1:53 PM 95.0 °F 24.1 °F 8% 29.86 in 10.0 mi ESE 9.2 mph - N/A   Clear
2:53 PM 95.0 °F 21.0 °F 7% 29.85 in 10.0 mi SSE 10.4 mph 16.1 mph N/A   Clear
3:53 PM 98.1 °F 19.9 °F 6% 29.81 in 10.0 mi SE 12.7 mph 24.2 mph N/A   Clear
4:53 PM 97.0 °F 21.0 °F 6% 29.81 in 10.0 mi SE 15.0 mph 26.5 mph N/A   Clear
5:53 PM 96.1 °F 25.0 °F 8% 29.79 in 10.0 mi SE 18.4 mph 24.2 mph N/A   Clear
6:53 PM 95.0 °F 28.9 °F 10% 29.79 in 10.0 mi SE 20.7 mph 28.8 mph N/A   Clear
7:53 PM 93.0 °F 34.0 °F 12% 29.78 in 10.0 mi SE 19.6 mph 28.8 mph N/A   Clear
8:53 PM 89.1 °F 37.0 °F 16% 29.79 in 10.0 mi SE 17.3 mph - N/A   Clear
9:53 PM 84.9 °F 39.9 °F 20% 29.80 in 10.0 mi SE 13.8 mph - N/A   Clear
10:53 PM 80.1 °F 41.0 °F 25% 29.81 in 10.0 mi ESE 9.2 mph - N/A   Clear
11:53 PM 78.1 °F 43.0 °F 29% 29.81 in 10.0 mi East 12.7 mph - N/A   Clear